Find Starlink 32745

NORAD ID: 62755 Int'l Des: 2025-014 Owner: SPXS Country: US Constellation: starlink operational
LEOCIRCULAR

Live-Position

3D-Globus wird geladen...

Über Starlink 32745

Beschreibung wird geladen...

Nächste Überflüge

Passes for default location (London). Set your location on the main map for personalized predictions.

Höhenverlauf

Loading altitude history...

Zweizeiliger Elementsatz

1 62755U 25014W 26122.22906213 .00019826 00000-0 72788-3 0 9996
2 62755 43.0018 212.1909 0000785 221.3022 138.7771 15.27588080 71443
Epoch: 2. Mai 2026 • Age: 12 hours

Aktueller Status

Höhe 487.0 km
Geschwindigkeit 7.62 km/s
Subsatellitenpunkt -20.48°S, 68.78°W
Startdatum 21. Jan. 2025
Alter 1.2 years
Typ internet

Technische Details

Klassifizierung Payload
Masse 730.00 kg
Trockenmasse 700.00 kg
Gesamtmasse 730.00 kg
Länge 0.30 m
Durchmesser 4.10 m
Spannweite 29.00 m
Form Box + pan
Hersteller SPXS
Bus-Typ Starlink V2M
Phasenstatus In Orbit
Besitzer/Staat SPXS/US

Most Searched